Location: C�mpuri de-Sus
(45.9500°N, 22.5500°E)
Time: 05:21:50
(UTC+00:00)

Cosmos 2278 Rocket - Pass Details

Date: 29 May 2022
Orbit: 840 x 846 km, 71.0° (Epoch: 03 July)

Event Time Altitude Azimuth Distance (km) Brightness Sun altitude
Rises 22:55:46 0° 329° (NNW) 3,417 6.2 -22.0°
Reaches altitude 10° 22:58:17 10° 324° (NW) 2,477 5.2 -22.0°
Maximum altitude 23:03:43 49° 251° (WSW) 1,087 2.5 -21.8°
Enters shadow 23:04:49 43° 218° (SW) 1,175 2.5 -21.8°
